Date String (YYYY-MM-DD hh:mm:ss) UTC,Instrument flags,absolute air pressure of the measurement (hPa),sample flow rate (lpm),inlet stack bypass flow (lpm),air temperature of the measurement (°C),ambient temperature measured by the external sensor (°C),aerosol sample conditioner tube jacket temperature (°C),OPC LED temperature (°C),internal box temperature (°C),relative humidity of the measurement (%),span deviation,mass concentration of particles derived from Lorenz-Mie calculation of OPC scattering (μg/m³),mass concentration of particles derived from Lorenz-Mie calculation of OPC scattering (μg/m³),mass concentration of particles derived from Lorenz-Mie calculation of OPC scattering (μg/m³)
DateTimeUTC,F1_M11,P_M11,Q1_M11,Q2_M11,T1_M11,T2_M11,T3_M11,T4_M11,T5_M11,U1_M11,ZSPAN_M11,X0_M11,X2_M11,X1_M11
2024-01-24 05:00:00,SystemResetWarning,0826.1,5.00,000.00,025.2,023.9,000.0,033.6,026.6,16.5,0001.9,0012.67,0007.51,0006.87
2024-01-24 05:01:00,SystemResetWarning,0826.1,5.01,000.00,025.2,023.9,000.0,033.6,026.5,16.5,0001.9,0012.74,0007.42,0006.77
2024-01-24 05:02:00,SystemResetWarning,0826.0,5.01,000.00,025.2,023.9,000.0,033.6,026.5,16.5,0001.9,0013.04,0007.29,0006.69
2024-01-24 05:03:00,SystemResetWarning,0826.0,5.01,000.00,025.2,023.9,000.0,033.6,026.5,16.5,0001.7,0013.10,0007.18,0006.58
2024-01-24 05:04:00,SystemResetWarning,0826.1,5.00,000.00,025.2,023.8,000.0,033.6,026.5,16.5,0001.4,0012.95,0007.06,0006.46
2024-01-24 05:05:00,SystemResetWarning,0826.0,4.99,000.00,025.2,023.8,000.0,033.6,026.5,16.5,0001.2,0012.78,0007.01,0006.37
2024-01-24 05:06:00,SystemResetWarning,0826.1,4.99,000.00,025.1,023.8,000.0,033.5,026.5,16.5,0001.3,0012.58,0006.93,0006.30
2024-01-24 05:07:00,SystemResetWarning,0826.0,5.00,000.00,025.1,023.8,000.0,033.5,026.5,16.5,0000.8,0012.13,0006.86,0006.26
2024-01-24 05:08:00,SystemResetWarning,0826.0,5.00,000.00,025.1,023.8,000.0,033.5,026.5,16.5,0000.0,0012.04,0006.81,0006.22
2024-01-24 05:09:00,SystemResetWarning,0826.0,5.02,000.00,025.1,023.8,000.0,033.5,026.5,16.5,0000.0,0012.14,0006.80,0006.17
2024-01-24 05:10:00,SystemResetWarning,0826.0,4.99,000.00,025.1,023.8,000.0,033.5,026.4,16.5,0000.0,0012.17,0006.79,0006.16
2024-01-24 05:11:00,SystemResetWarning,0826.0,4.99,000.00,025.1,023.8,000.0,033.5,026.4,16.5,0000.0,0012.40,0006.78,0006.17
2024-01-24 05:12:00,SystemResetWarning,0826.0,4.99,000.00,025.1,023.8,000.0,033.5,026.5,16.4,0000.9,0012.73,0006.84,0006.18
2024-01-24 05:13:00,SystemResetWarning,0826.0,5.01,000.00,025.1,023.8,000.0,033.5,026.4,16.4,0000.0,0012.47,0006.91,0006.22
2024-01-24 05:14:00,SystemResetWarning,0826.0,5.01,000.00,025.1,023.8,000.0,033.5,026.4,16.5,0002.2,0012.45,0006.98,0006.29
2024-01-24 05:15:00,SystemResetWarning,0826.0,4.99,000.00,025.1,023.8,000.0,033.5,026.4,16.5,0002.3,0012.53,0007.05,0006.35
2024-01-24 05:16:00,SystemResetWarning,0826.0,4.99,000.00,025.1,023.7,000.0,033.4,026.4,16.5,0002.6,0012.22,0007.05,0006.39
2024-01-24 05:17:00,SystemResetWarning,0826.1,5.01,000.00,025.0,023.7,000.0,033.4,026.4,16.5,0002.3,0012.82,0007.07,0006.39
2024-01-24 05:18:00,SystemResetWarning,0826.1,5.01,000.00,025.0,023.7,000.0,033.4,026.4,16.5,0002.1,0013.33,0007.07,0006.37
2024-01-24 05:19:00,SystemResetWarning,0826.0,5.01,000.00,025.0,023.7,000.0,033.4,026.4,16.6,0001.7,0014.06,0007.09,0006.37
2024-01-24 05:20:00,SystemResetWarning,0826.1,5.00,000.00,025.0,023.7,000.0,033.4,026.4,16.7,0001.6,0014.10,0007.07,0006.38
2024-01-24 05:21:00,SystemResetWarning,0826.0,4.99,000.00,025.0,023.7,000.0,033.4,026.4,16.6,0001.7,0014.13,0007.10,0006.37
2024-01-24 05:22:00,SystemResetWarning,0826.0,5.00,000.00,025.0,023.7,000.0,033.4,026.3,16.6,0001.8,0013.99,0007.08,0006.34
2024-01-24 05:23:00,SystemResetWarning,0826.1,5.00,000.00,025.0,023.7,000.0,033.4,026.4,16.6,0002.1,0013.58,0007.00,0006.32
2024-01-24 05:24:00,SystemResetWarning,0826.1,5.01,000.00,025.0,023.7,000.0,033.4,026.4,16.5,0002.4,0013.59,0006.97,0006.28
2024-01-24 05:25:00,SystemResetWarning,0826.1,5.01,000.00,025.0,023.7,000.0,033.4,026.4,16.5,0002.7,0013.62,0006.93,0006.22
2024-01-24 05:26:00,SystemResetWarning,0826.1,5.01,000.00,025.0,023.7,000.0,033.4,026.4,16.5,0002.8,0013.49,0006.84,0006.17
2024-01-24 05:27:00,SystemResetWarning,0826.1,4.99,000.00,025.0,023.7,000.0,033.4,026.3,16.5,0002.5,0013.38,0006.78,0006.14
2024-01-24 05:28:00,SystemResetWarning,0826.1,4.99,000.00,025.0,023.7,000.0,033.4,026.3,16.4,0002.5,0012.40,0006.76,0006.13
2024-01-24 05:29:00,SystemResetWarning,0826.1,5.00,000.00,025.0,023.7,000.0,033.3,026.3,16.4,0000.2,0011.51,0006.74,0006.12
2024-01-24 05:30:00,SystemResetWarning,0826.1,5.01,000.00,025.0,023.7,000.0,033.3,026.3,16.3,0000.0,0010.82,0006.74,0006.11
2024-01-24 05:31:00,SystemResetWarning,0826.1,5.00,000.00,024.9,023.7,000.0,033.3,026.3,16.3,0000.0,0010.97,0006.71,0006.11
2024-01-24 05:32:00,SystemResetWarning,0826.1,5.00,000.00,024.9,023.7,000.0,033.3,026.3,16.4,0000.0,0011.24,0006.69,0006.10
2024-01-24 05:33:00,SystemResetWarning,0826.1,5.00,000.00,024.9,023.6,000.0,033.3,026.3,16.4,0000.0,0011.49,0006.66,0006.10
2024-01-24 05:34:00,SystemResetWarning,0826.0,5.00,000.00,024.9,023.6,000.0,033.3,026.3,16.4,0000.0,0011.55,0006.72,0006.12
2024-01-24 05:35:00,SystemResetWarning,0826.0,4.99,000.00,024.9,023.6,000.0,033.3,026.3,16.4,0000.0,0011.78,0006.73,0006.14
2024-01-24 05:36:00,SystemResetWarning,0826.0,4.99,000.00,024.9,023.6,000.0,033.3,026.3,16.4,0000.0,0012.13,0006.74,0006.16
2024-01-24 05:37:00,SystemResetWarning,0826.0,5.00,000.00,024.9,023.6,000.0,033.3,026.3,16.3,0000.3,0012.04,0006.74,0006.17
2024-01-24 05:38:00,SystemResetWarning,0826.0,5.01,000.00,024.9,023.6,000.0,033.3,026.2,16.3,0001.4,0012.04,0006.73,0006.16
2024-01-24 05:39:00,SystemResetWarning,0826.0,5.01,000.00,024.9,023.6,000.0,033.3,026.2,16.4,0001.7,0012.02,0006.74,0006.17
2024-01-24 05:40:00,SystemResetWarning,0826.0,5.00,000.00,024.9,023.6,000.0,033.3,026.2,16.4,0002.0,0012.17,0006.72,0006.16
2024-01-24 05:41:00,SystemResetWarning,0826.0,4.99,000.00,024.9,023.6,000.0,033.3,026.2,16.3,0001.9,0012.37,0006.72,0006.16
2024-01-24 05:42:00,SystemResetWarning,0826.0,4.99,000.00,024.9,023.5,000.0,033.2,026.2,16.3,0001.7,0012.56,0006.71,0006.14
2024-01-24 05:43:00,SystemResetWarning,0826.0,5.00,000.00,024.8,023.5,000.0,033.2,026.2,16.3,0001.9,0012.25,0006.70,0006.13
2024-01-24 05:44:00,SystemResetWarning,0826.0,5.01,000.00,024.8,023.6,000.0,033.2,026.2,16.3,0001.8,0011.77,0006.71,0006.13
2024-01-24 05:45:00,SystemResetWarning,0826.1,5.01,000.00,024.8,023.5,000.0,033.2,026.2,16.3,0002.1,0011.74,0006.69,0006.11
2024-01-24 05:46:00,SystemResetWarning,0826.1,5.00,000.00,024.8,023.5,000.0,033.2,026.2,16.4,0002.6,0011.64,0006.65,0006.10
2024-01-24 05:47:00,SystemResetWarning,0826.1,4.98,000.00,024.8,023.5,000.0,033.2,026.2,16.4,0002.6,0010.75,0006.62,0006.09
2024-01-24 05:48:00,SystemResetWarning,0826.2,5.01,000.00,024.8,023.5,000.0,033.2,026.2,16.4,0002.5,0010.92,0006.61,0006.08
2024-01-24 05:49:00,SystemResetWarning,0826.2,5.01,000.00,024.8,023.6,000.0,033.2,026.2,16.4,0002.7,0011.38,0006.63,0006.07
2024-01-24 05:50:00,SystemResetWarning,0826.2,5.01,000.00,024.8,023.6,000.0,033.2,026.2,16.5,0002.3,0011.44,0006.66,0006.08
2024-01-24 05:51:00,SystemResetWarning,0826.2,4.99,000.00,024.8,023.7,000.0,033.2,026.2,16.5,0002.1,0011.41,0006.71,0006.09
2024-01-24 05:52:00,SystemResetWarning,0826.2,4.99,000.00,024.8,023.7,000.0,033.2,026.1,16.6,0002.4,0011.14,0006.73,0006.12
2024-01-24 05:53:00,SystemResetWarning,0826.2,4.99,000.00,024.7,023.7,000.0,033.2,026.1,16.6,0001.0,0010.99,0006.77,0006.16
2024-01-24 05:54:00,SystemResetWarning,0826.2,5.00,000.00,024.7,023.7,000.0,033.2,026.0,16.5,0000.0,0011.69,0006.81,0006.18
2024-01-24 05:55:00,SystemResetWarning,0826.2,5.01,000.00,024.7,023.7,000.0,033.2,026.0,16.6,0000.7,0011.86,0006.82,0006.21
2024-01-24 05:56:00,SystemResetWarning,0826.2,5.00,000.00,024.7,023.7,000.0,033.2,026.0,16.7,0001.8,0012.17,0006.87,0006.25
2024-01-24 05:57:00,SystemResetWarning,0826.2,4.98,000.00,024.7,023.7,000.0,033.1,026.1,16.8,0002.1,0013.40,0006.91,0006.30
2024-01-24 05:58:00,SystemResetWarning,0826.2,5.00,000.00,024.7,023.7,000.0,033.1,026.1,16.7,0002.3,0013.53,0006.91,0006.32
2024-01-24 05:59:00,SystemResetWarning,0826.2,5.00,000.00,024.7,023.7,000.0,033.1,026.1,16.7,0002.1,0013.50,0006.95,0006.36
